Zurück zum Katalog

KUIPER-00569

AktivKommunikationLEO
NORAD 69766·PAYLOAD·🇺🇸 United States

Gestartet Jul 2, 2026 von Cape Canaveral Space Force Station

Loading…

Nächste Überflüge (nächste 24 Stunden)

TLE

AktuellSource: CelesTrak SupGP

Epoche: Sep 14, 2026, 21:28 UTC

1 69766C 26151D   26257.89451389  .00003700  00000+0  48440-3 0  2577
2 69766  51.9005 256.4676 0000786  42.6544 195.6484 14.79923666    19

Verfolge KUIPER-00569 in Echtzeit mit AllMySat

Download on the App Store